This is the latest recevied weather packets stored in our database for station/object K4AVM-13. If no packets are shown the sender has not sent any weather packets the latest 10 day(s).
| Time | Temp. | Humidity | Pressure | Rain* | Wind** | Luminosity | Snow |
|---|---|---|---|---|---|---|---|
| 1777769034 | 10.56° C | 67% | 1014 hPa | 0 mm | - | 0 W/m² | - |
| 1777768732 | 10.56° C | 69% | 1014 hPa | 0 mm | - | 0 W/m² | - |
| 1777768428 | 10.56° C | 68% | 1014 hPa | 0 mm | - | 0 W/m² | - |
| 1777768125 | 10.56° C | 66% | 1013.9 hPa | 0 mm | - | 0 W/m² | - |
| 1777767823 | 11.11° C | 65% | 1013.8 hPa | 0 mm | - | 0 W/m² | - |
| 1777767519 | 11.11° C | 64% | 1014 hPa | 0 mm | - | 0 W/m² | - |
| 1777767215 | 11.67° C | 64% | 1013.9 hPa | 0 mm | - | 0 W/m² | - |
| 1777766913 | 11.67° C | 61% | 1013.7 hPa | 0 mm | - | 1 W/m² | - |
| 1777766610 | 12.22° C | 60% | 1013.6 hPa | 0 mm | - | 2 W/m² | - |
| 1777766307 | 12.22° C | 59% | 1013.4 hPa | 0 mm | - | 3 W/m² | - |
| 1777766004 | 12.78° C | 59% | 1013.3 hPa | 0 mm | - | 5 W/m² | - |
| 1777765701 | 12.78° C | 58% | 1013.5 hPa | 0 mm | - | 6 W/m² | - |
| 1777765398 | 12.78° C | 59% | 1013.4 hPa | 0 mm | - | 9 W/m² | - |
| 1777765094 | 12.78° C | 57% | 1013.4 hPa | 0 mm | - | 11 W/m² | - |
| 1777764791 | 13.33° C | 55% | 1013.3 hPa | 0 mm | - | 17 W/m² | - |
| 1777764488 | 13.33° C | 54% | 1013.2 hPa | 0 mm | - | 19 W/m² | - |
| 1777764184 | 13.33° C | 53% | 1013 hPa | 0 mm | - | 23 W/m² | - |
| 1777763880 | 13.89° C | 52% | 1013 hPa | 0 mm | - | 30 W/m² | - |
| 1777763578 | 13.89° C | 50% | 1012.9 hPa | 0 mm | - | 24 W/m² | - |
| 1777763277 | 13.89° C | 50% | 1012.9 hPa | 0 mm | - | 26 W/m² | - |
| 1777762974 | 14.44° C | 48% | 1012.9 hPa | 0 mm | - | 30 W/m² | - |
| 1777762670 | 14.44° C | 49% | 1012.9 hPa | 0 mm | - | 33 W/m² | - |
| 1777762368 | 14.44° C | 47% | 1012.6 hPa | 0 mm | - | 41 W/m² | - |
| 1777762064 | 15° C | 45% | 1012.9 hPa | 0 mm | - | 56 W/m² | - |
| 1777761761 | 15° C | 47% | 1012.8 hPa | 0 mm | - | 67 W/m² | - |
* Rain latest hour (hover to see other rain measurements)
** Current wind speed in m/s (hover to see current wind gust speed)